Weather History for Peru, IL

Change the Weather History Date:

Tuesday, November 5, 2013

  Actual Average Record
Temperature  
Mean Temperature 52 °F -  
Max Temperature 54 °F 50 °F 73 °F (2008)
Min Temperature 50 °F 33 °F 12 °F (1991)
Degree Days  
Heating Degree Days 13    
Growing Degree Days 2 (Base 50)    
Moisture  
Dew Point 48 °F    
Average Humidity 86    
Maximum Humidity 95    
Minimum Humidity 76    
Precipitation  
Precipitation 0.06 in - - ()
Sea Level Pressure  
Sea Level Pressure 30.14 in    
Wind  
Wind Speed 9 mph (South)    
Max Wind Speed 22 mph    
Max Gust Speed 30 mph    
Visibility 9 miles    
Events Rain    
Averages and records for this station are not official NWS values.
T = Trace of Precipitation, MM = Missing Value Source: NWS Daily Summary

Daily Weather History Graph

Daily Weather History Graph

Search for Another Location

Airport:

Trip Planner

Search our weather history database for the weather conditions in past years. The results will help you decide how hot, cold, wet, or windy it might be!

Date:

Astronomy

Nov. 05, 2013 Rise Set
Actual Time 6:33 AM CST 4:46 PM CST
Civil Twilight 6:04 AM CST 5:15 PM CST
Nautical Twilight 5:31 AM CST 5:48 PM CST
Astronomical Twilight 4:58 AM CST 6:20 PM CST
Moon 8:49 AM CST (11/5) 6:47 PM CST (11/5)
Length of Visible Light 11h 11m
Length of Day
10h 13m
Waxing Crescent, 7% of the Moon is Illuminated
Nov 5
Waxing Crescent
Nov 9
First Quarter
Nov 17
Full
Nov 25
Last Quarter
Dec 2
New

Hourly Weather History & Observations

Time (CST) Temp. Dew Point Humidity Pressure Visibility Wind Dir Wind Speed Gust Speed Precip Events Conditions
12:15 AM 52.2 °F 44.8 °F 76% 30.19 in 10.0 mi SSW 8.1 mph - N/A   Overcast
12:35 AM 52.2 °F 45.0 °F 76% 30.19 in 10.0 mi SSW 6.9 mph - N/A   Overcast
12:55 AM 51.8 °F 45.0 °F 77% 30.19 in 10.0 mi South 6.9 mph - N/A   Overcast
1:15 AM 51.6 °F 45.0 °F 78% 30.19 in 10.0 mi South 5.8 mph - N/A   Overcast
1:35 AM 51.8 °F 45.1 °F 78% 30.19 in 10.0 mi South 6.9 mph - N/A   Overcast
1:55 AM 51.8 °F 45.1 °F 78% 30.20 in 10.0 mi SSW 8.1 mph - N/A   Overcast
2:15 AM 51.8 °F 45.1 °F 78% 30.20 in 10.0 mi SSW 5.8 mph - N/A   Overcast
2:35 AM 51.8 °F 45.1 °F 78% 30.21 in 10.0 mi SSW 5.8 mph - N/A   Overcast
2:55 AM 51.8 °F 45.1 °F 78% 30.20 in 10.0 mi South 4.6 mph - N/A   Overcast
3:15 AM 51.6 °F 45.1 °F 79% 30.21 in 10.0 mi Calm Calm - N/A   Overcast
3:35 AM 51.8 °F 45.1 °F 78% 30.21 in 10.0 mi Calm Calm - N/A   Overcast
3:55 AM 51.1 °F 45.3 °F 81% 30.21 in 10.0 mi SSE 5.8 mph - N/A   Overcast
4:15 AM 50.9 °F 45.1 °F 81% 30.21 in 10.0 mi SSE 5.8 mph - N/A   Overcast
4:35 AM 50.9 °F 45.5 °F 82% 30.22 in 10.0 mi SSE 8.1 mph - N/A   Overcast
4:55 AM 50.9 °F 45.5 °F 82% 30.23 in 10.0 mi South 8.1 mph - N/A   Overcast
5:15 AM 50.9 °F 45.7 °F 82% 30.21 in 10.0 mi South 8.1 mph - N/A   Overcast
5:35 AM 50.9 °F 45.7 °F 82% 30.22 in 10.0 mi South 8.1 mph - N/A   Overcast
5:55 AM 50.9 °F 45.7 °F 82% 30.22 in 10.0 mi SSE 6.9 mph - N/A   Overcast
6:15 AM 50.9 °F 45.7 °F 82% 30.23 in 10.0 mi SSE 5.8 mph - N/A   Overcast
6:35 AM 50.4 °F 45.7 °F 84% 30.23 in 10.0 mi South 6.9 mph - N/A   Overcast
6:55 AM 50.9 °F 46.0 °F 83% 30.24 in 10.0 mi South 8.1 mph - N/A   Overcast
7:15 AM 50.9 °F 46.4 °F 85% 30.24 in 10.0 mi South 8.1 mph - N/A   Overcast
7:35 AM 51.1 °F 46.4 °F 84% 30.24 in 10.0 mi South 9.2 mph - N/A   Overcast
7:55 AM 51.3 °F 46.8 °F 85% 30.25 in 10.0 mi South 8.1 mph - N/A   Overcast
8:15 AM 51.8 °F 46.9 °F 83% 30.25 in 10.0 mi South 8.1 mph - N/A   Overcast
8:35 AM 52.2 °F 47.3 °F 83% 30.25 in 10.0 mi South 5.8 mph - N/A   Overcast
8:55 AM 52.2 °F 47.7 °F 85% 30.25 in 10.0 mi South 4.6 mph - N/A   Overcast
9:15 AM 52.3 °F 47.7 °F 84% 30.24 in 10.0 mi South 6.9 mph - N/A   Overcast
9:35 AM 52.7 °F 47.8 °F 84% 30.24 in 10.0 mi South 8.1 mph - N/A   Overcast
9:55 AM 52.9 °F 48.2 °F 84% 30.24 in 10.0 mi South 13.8 mph - N/A   Overcast
10:15 AM 52.9 °F 48.2 °F 84% 30.24 in 10.0 mi South 11.5 mph - N/A   Overcast
10:35 AM 52.9 °F 48.6 °F 85% 30.24 in 7.0 mi South 12.7 mph - N/A   Overcast
10:55 AM 52.9 °F 48.9 °F 86% 30.23 in 10.0 mi South 11.5 mph - N/A   Overcast
11:15 AM 53.1 °F 49.1 °F 86% 30.23 in 10.0 mi South 10.4 mph 17.3 mph N/A   Overcast
11:35 AM 53.2 °F 49.5 °F 87% 30.21 in 7.0 mi South 13.8 mph - N/A   Overcast
11:55 AM 52.9 °F 50.2 °F 91% 30.20 in 2.0 mi South 11.5 mph - N/A   Overcast
12:15 PM 52.7 °F 50.9 °F 94% 30.19 in 2.5 mi South 11.5 mph - N/A Rain Light Rain
12:35 PM 52.9 °F 51.3 °F 94% 30.18 in 2.5 mi South 15.0 mph 20.7 mph N/A   Overcast
12:55 PM 52.3 °F 50.9 °F 95% 30.17 in 7.0 mi South 12.7 mph - N/A   Overcast
1:15 PM 52.7 °F 50.7 °F 93% 30.16 in 5.0 mi South 11.5 mph - N/A Rain Rain
1:35 PM 52.9 °F 50.9 °F 93% 30.15 in 10.0 mi South 12.7 mph - N/A   Overcast
1:55 PM 53.2 °F 51.3 °F 93% 30.14 in 10.0 mi South 11.5 mph - N/A Rain Light Rain
2:15 PM 53.4 °F 51.4 °F 93% 30.13 in 7.0 mi South 11.5 mph - N/A Rain Rain
2:35 PM 53.2 °F 51.3 °F 93% 30.13 in 5.0 mi South 11.5 mph - 0.01 in   Drizzle
2:55 PM 53.2 °F 51.4 °F 94% 30.12 in 7.0 mi SSE 12.7 mph - 0.02 in   Light Drizzle
3:15 PM 53.2 °F 51.3 °F 93% 30.12 in 5.0 mi SSE 12.7 mph 17.3 mph N/A   Overcast
3:35 PM 53.2 °F 51.1 °F 92% 30.11 in 7.0 mi SSE 12.7 mph - N/A   Overcast
3:55 PM 53.6 °F 51.1 °F 91% 30.10 in 7.0 mi SSE 11.5 mph - N/A   Overcast
4:15 PM 53.2 °F 50.9 °F 92% 30.10 in 7.0 mi SSE 12.7 mph - N/A   Overcast
4:35 PM 53.1 °F 50.9 °F 92% 30.09 in 7.0 mi SSE 10.4 mph 18.4 mph N/A   Overcast
4:55 PM 53.2 °F 50.9 °F 92% 30.08 in 10.0 mi SSE 11.5 mph - N/A   Overcast
5:15 PM 53.6 °F 50.9 °F 91% 30.08 in 10.0 mi SSE 12.7 mph - N/A   Overcast
5:35 PM 53.6 °F 50.9 °F 91% 30.08 in 10.0 mi SSE 15.0 mph 19.6 mph N/A   Mostly Cloudy
5:55 PM 53.8 °F 50.4 °F 88% 30.07 in 10.0 mi SSE 17.3 mph 20.7 mph N/A   Overcast
6:15 PM 53.8 °F 50.0 °F 87% 30.07 in 10.0 mi SSE 15.0 mph 19.6 mph N/A   Overcast
6:35 PM 54.0 °F 49.6 °F 85% 30.05 in 10.0 mi SSE 16.1 mph 24.2 mph N/A   Overcast
6:55 PM 53.8 °F 49.3 °F 85% 30.04 in 10.0 mi SSE 17.3 mph 21.9 mph N/A   Overcast
7:15 PM 53.8 °F 49.1 °F 84% 30.04 in 10.0 mi SSE 17.3 mph 23.0 mph N/A   Overcast
7:35 PM 53.6 °F 48.6 °F 83% 30.03 in 10.0 mi SSE 18.4 mph - N/A   Overcast
7:55 PM 53.6 °F 48.4 °F 82% 30.02 in 10.0 mi SSE 15.0 mph 26.5 mph N/A   Overcast
8:15 PM 53.1 °F 48.7 °F 85% 30.01 in 10.0 mi SSE 18.4 mph 23.0 mph N/A   Overcast
8:35 PM 53.6 °F 49.1 °F 85% 30.00 in 10.0 mi SSE 17.3 mph 29.9 mph N/A   Overcast
8:55 PM 53.6 °F 49.1 °F 85% 30.00 in 10.0 mi SSE 20.7 mph - N/A   Overcast
9:15 PM 54.7 °F 50.5 °F 86% 30.00 in 7.0 mi South 18.4 mph 26.5 mph N/A   Overcast
9:35 PM 53.8 °F 50.5 °F 89% 29.98 in 10.0 mi SSE 18.4 mph 25.3 mph N/A   Overcast
9:55 PM 54.7 °F 51.3 °F 88% 29.98 in 10.0 mi South 16.1 mph 24.2 mph N/A   Overcast
10:15 PM 54.7 °F 51.1 °F 88% 29.98 in 10.0 mi South 16.1 mph - N/A   Overcast
10:35 PM 54.7 °F 50.2 °F 85% 29.97 in 10.0 mi South 16.1 mph - N/A   Overcast
10:55 PM 54.7 °F 50.7 °F 86% 29.97 in 7.0 mi South 17.3 mph - N/A Rain Rain
11:15 PM 54.7 °F 50.9 °F 87% 29.96 in 7.0 mi South 21.9 mph 26.5 mph 0.02 in Rain Light Rain
11:35 PM 53.8 °F 50.9 °F 90% 29.95 in 5.0 mi South 18.4 mph 24.2 mph 0.04 in Rain Rain
11:55 PM 53.6 °F 50.9 °F 91% 29.95 in 7.0 mi South 17.3 mph 24.2 mph 0.04 in   Overcast